Showing default

COSMOS 2606, 67680

Orbit data source: Space-Track

COSMOS 2606, 67680 is a payload satellite owned by VVKO VKS (CIS) in SSO that was launched on Thu, 05 Feb 2026 UTC via a SOYUZ-2-1B launch vehicle from the Plesetsk Missile And Space Complex (PKMTR). Payload-class satellites include a variety of spacecraft equipped with specific instruments for various scientific and technological missions. These include communications satellites like Starlink; space stations such as the ISS; scientific satellites like the Hubble; Earth observation satellites from companies like Planet Labs, Umbra, and HawkEye 360; GPS; miniature CubeSats for education and research; and military/defense satellites.

Loading next visibility...
Identifier
67680, 2026-023G
Orbit
SSO
Country
Flag of CISCIS
Related business
Manufacturer
Unknown (RU)
Mission
Operational Defense Imaging
Bus & Motor
UNK, Unknown motor
Mass
~500 kg wet, ~500 kg dry
Launch date (UTC)
2026-02-05 (4 months ago)
Launch vehicle
SOYUZ-2-1B
Launch site
Plesetsk Missile And Space Complex (PKMTR)
Object type
Payload
Rocket body
Debris
Shape & HBR
Cyl + 2 Pan, 0.5 m
Radar Cross Section
3.727 m², Medium (>0.1 m² and < 1m²)

Expand to show TLE details & history
Last TLE update: 10 hours ago

TLE from 10 hours ago
0 COSMOS 2606
1 67680U 26023G   26171.44681878  .00010221  00000-0  40368-3 0  9993
2 67680  96.6146 234.9322 0022643 109.8043 250.5641 15.25427908 20499
Epoch: 2026-06-20T10:43Z
TLE epoch observation values (Epoch: 2026-06-20T10:43:25.142Z)
Latitude
-0.00005°
Longitude
165.41613°
Altitude
497.827 km
Speed
7.613 km/s
True Right ascension
15h 39m 43s
True Declination
0° 00' 00"
Sunlit
Object was in full shadow at epoch
Visualization orbit readout
Latitude
Unknown
Longitude
Unknown
Altitude
Unknown
Speed
Unknown
Apparent Right ascension
Unknown
Apparent Declination
Unknown
Sunlit
N/A
Visualization observer readout
Local Sidereal Time
07:19:51
Azimuth
Unknown
Elevation
Unknown
Doppler factor
Unknown
Orbital elements
Apogee altitude
501.971 km
Perigee altitude
470.884 km
Semi-major axis
6,864.564 km
Eccentricity
0.00226
Inclination
96.6146°
RAAN
234.9322°
Arg. of periapsis
109.8043°
True anomaly
250.31965°
Mean anomaly
250.5641°
Eccentric anomaly
250.44185°
Mean motion
3.81613 °/min
Orbital period
94.34 mins
BSTAR
0.00040368
Loading maneuver chart data...
Computing Atmospheric mass density...
Loading historical data...
Loading historical data...
Loading historical data...
Loading historical data...
Loading historical data...
Loading historical data...
Loading historical data...

Documentation

Showing up to 5 results
|